Madison, WI

12:27 AM CST on November 20, 2019 (GMT -0600)
Dane County Regional-Truax

Weather History for KMSN - June, 2019

Change the Weather History Date:

Sunday, June 2, 2019

  Actual Average Record
Temperature  
Mean Temperature 60 °F 63 °F  
Max Temperature 73 °F 74 °F 91 °F (1948)
Min Temperature 47 °F 52 °F 35 °F (1956)
Degree Days  
Heating Degree Days 5 4  
Month to date heating degree days 6 9  
Since 1 June heating degree days 6 9  
Since 1 July heating degree days 7465 7282  
Cooling Degree Days 0 2  
Month to date cooling degree days 0 4  
Year to date cooling degree days 20 34  
Since 1 June cooling degree days 0 4  
Growing Degree Days 12 (Base 50)    
Moisture  
Dew Point 47 °F    
Average Humidity 66    
Maximum Humidity 100    
Minimum Humidity 31    
Precipitation  
Precipitation 0.00 in 0.14 in 2.26 in (1878)
Month to date precipitation 0.47 0.29  
Year to date precipitation 16.28 12.12  
Snow  
Snow 0.00 in 0.00 in 0.00 in (2018)
Month to date snowfall 0.0 0.0  
Since 1 June snowfall 0.0 0.0  
Since 1 July snowfall 57.2 50.9  
Snow Depth 0.00 in    
Sea Level Pressure  
Sea Level Pressure 29.91 in    
Wind  
Wind Speed 8 mph (NNW)    
Max Wind Speed 17 mph    
Max Gust Speed 28 mph    
Visibility 7 miles    
Events Fog    
T = Trace of Precipitation, MM = Missing Value Source: NWS Daily Summary

Daily Weather History Graph

Daily Weather History Graph

Search for Another Location

Airport or City:

Astronomy

Jun. 02, 2019 Rise Set
Actual Time 5:20 AM CDT 8:30 PM CDT
Civil Twilight 4:45 AM CDT 9:05 PM CDT
Nautical Twilight 4:00 AM CDT 9:50 PM CDT
Astronomical Twilight 3:07 AM CDT 10:44 PM CDT
Moon 5:03 AM CDT (6/2) 7:47 PM CDT (6/2)
Length of Visible Light 16h 20m
Length of Day
15h 10m
Waning Crescent, 1% of the Moon is Illuminated
Jun 2
Waning Crescent
Jun 3
New
Jun 10
First Quarter
Jun 17
Full
Jun 25
Last Quarter

Hourly Weather History & Observations

Time (CDT) Temp. Dew Point Humidity Pressure Visibility Wind Dir Wind Speed Gust Speed Precip Events Conditions
12:06 AM 57.0 °F 55.9 °F 96% 29.83 in 1.0 mi West 3.5 mph - N/A   Mist
12:19 AM 57.0 °F 55.9 °F 96% 29.83 in 2.0 mi West 3.5 mph - N/A   Scattered Clouds
12:28 AM 57.0 °F 55.9 °F 96% 29.83 in 1.0 mi Calm Calm - N/A   Mist
12:41 AM 55.9 °F 55.0 °F 97% 29.83 in 0.8 mi Calm Calm - N/A   Mist
12:53 AM 55.9 °F 55.0 °F 97% 29.82 in 0.5 mi Calm Calm - N/A Fog Fog
1:09 AM 55.9 °F 54.0 °F 93% 29.83 in 0.2 mi Calm Calm - N/A Fog Fog
1:19 AM 55.9 °F 54.0 °F 93% 29.83 in 0.5 mi Calm Calm - N/A Fog Fog
1:29 AM 55.0 °F 54.0 °F 96% 29.83 in 0.2 mi Calm Calm - N/A Fog Fog
1:42 AM 55.0 °F 54.0 °F 96% 29.83 in 0.8 mi Variable 3.5 mph - N/A   Mist
1:49 AM 57.2 °F 55.4 °F 94% 29.83 in 1.2 mi WNW 4.6 mph - N/A   Scattered Clouds
1:51 AM 57.2 °F 55.4 °F 94% 29.83 in 3.0 mi WNW 4.6 mph - N/A   Scattered Clouds
1:53 AM 57.0 °F 55.9 °F 96% 29.82 in 5.0 mi WNW 3.5 mph - N/A   Scattered Clouds
2:53 AM 55.0 °F 53.1 °F 93% 29.83 in 9.0 mi NNW 5.8 mph - N/A   Clear
3:53 AM 55.0 °F 53.1 °F 93% 29.86 in 9.0 mi North 9.2 mph - N/A   Clear
4:53 AM 54.0 °F 51.1 °F 90% 29.88 in 10.0 mi North 8.1 mph - N/A   Clear
5:53 AM 52.0 °F 46.9 °F 83% 29.91 in 10.0 mi NNW 4.6 mph - N/A   Partly Cloudy
6:53 AM 54.0 °F 46.9 °F 77% 29.92 in 10.0 mi North 5.8 mph - N/A   Partly Cloudy
7:53 AM 57.0 °F 46.0 °F 67% 29.95 in 10.0 mi North 6.9 mph - N/A   Clear
8:53 AM 62.1 °F 44.1 °F 52% 29.96 in 10.0 mi North 5.8 mph - N/A   Clear
9:53 AM 66.0 °F 39.0 °F 37% 29.97 in 10.0 mi NW 6.9 mph - N/A   Clear
10:53 AM 66.9 °F 37.0 °F 33% 29.98 in 10.0 mi NNW 11.5 mph 20.7 mph N/A   Partly Cloudy
11:53 AM 69.1 °F 39.0 °F 33% 29.98 in 10.0 mi NNW 8.1 mph 20.7 mph N/A   Partly Cloudy
12:53 PM 69.1 °F 39.0 °F 33% 29.96 in 10.0 mi NW 9.2 mph - N/A   Mostly Cloudy
1:53 PM 69.1 °F 37.9 °F 32% 29.96 in 10.0 mi North 17.3 mph 27.6 mph N/A   Mostly Cloudy
2:53 PM 69.1 °F 37.0 °F 31% 29.96 in 10.0 mi NNW 8.1 mph 19.6 mph N/A   Mostly Cloudy
3:53 PM 71.1 °F 39.0 °F 31% 29.95 in 10.0 mi NW 9.2 mph 20.7 mph N/A   Mostly Cloudy
4:53 PM 71.1 °F 39.0 °F 31% 29.94 in 10.0 mi North 10.4 mph - N/A   Scattered Clouds
5:53 PM 71.1 °F 39.9 °F 32% 29.94 in 10.0 mi NNW 6.9 mph - N/A   Scattered Clouds
6:53 PM 70.0 °F 39.9 °F 33% 29.94 in 10.0 mi NW 5.8 mph - N/A   Partly Cloudy
7:53 PM 66.9 °F 42.1 °F 40% 29.95 in 10.0 mi NNW 3.5 mph - N/A   Mostly Cloudy
8:53 PM 62.1 °F 44.1 °F 52% 29.96 in 10.0 mi Calm Calm - N/A   Scattered Clouds
9:53 PM 57.0 °F 44.1 °F 62% 29.98 in 10.0 mi East 8.1 mph - N/A   Scattered Clouds
10:53 PM 54.0 °F 44.1 °F 69% 30.01 in 10.0 mi East 9.2 mph - N/A   Clear
11:53 PM 50.0 °F 35.1 °F 57% 30.05 in 10.0 mi East 9.2 mph - N/A   Clear